Overview Statistics Trail Chart Weather Telemetry Raw packets
 

This is the latest recevied weather packets stored in our database for station/object EA5EN-10. If no packets are shown the sender has not sent any weather packets the latest 10 day(s).

<< 23 24 25 26 27 28 >>
Time Temp. Humidity Pressure Rain* Wind** Luminosity Snow
1787844704 32.22° C 41% 1022.8 hPa - - - -
1787843646 32.22° C 42% 1022.7 hPa - - - -
1787842588 32.22° C 42% 1022.8 hPa - - - -
1787841530 31.67° C 42% 1023.1 hPa - - - -
1787840472 31.67° C 43% 1023.3 hPa - - - -
1787838532 31.11° C 43% 1023.8 hPa - - - -
1787837299 31.11° C 44% 1024 hPa - - - -
1787836241 31.11° C 44% 1024 hPa - - - -
1787835183 31.11° C 44% 1024.1 hPa - - - -
1787833068 30.56° C 45% 1024.6 hPa - - - -
1787832009 30.56° C 46% 1024.8 hPa - - - -
1787830959 30.56° C 46% 1025 hPa - - - -
1787829894 30° C 46% 1025.2 hPa - - - -
1787829011 30° C 47% 1025.5 hPa - - - -
1787827778 30° C 47% 1025.7 hPa - - - -
1787826727 30° C 47% 1025.9 hPa - - - -
1787825662 30° C 47% 1026.2 hPa - - - -
1787824604 30° C 48% 1026.4 hPa - - - -
1787821431 29.44° C 48% 1026 hPa - - - -
1787820373 29.44° C 48% 1026 hPa - - - -
1787819315 29.44° C 48% 1025.9 hPa - - - -
1787817199 30° C 48% 1025.8 hPa - - - -
1787816141 30° C 48% 1025.8 hPa - - - -
1787815084 30° C 48% 1025.7 hPa - - - -
1787814026 30° C 48% 1025.5 hPa - - - -

* Rain since midnight (hover to see other rain measurements)
** Current wind speed in m/s (hover to see current wind gust speed)